Kodiak, AK

4:10 PM AKDT on October 19, 2017 (GMT -0800)
Kodiak

Weather History for PADQ - July, 2013

Change the Weather History Date:

Sunday, July 7, 2013

  Actual Average Record
Temperature  
Mean Temperature 50 °F 54 °F  
Max Temperature 53 °F 59 °F 80 °F (2004)
Min Temperature 47 °F 49 °F 41 °F (2007)
Degree Days  
Heating Degree Days 15 12  
Month to date heating degree days 92 85  
Since 1 June heating degree days 423 546  
Since 1 July heating degree days 92 85  
Cooling Degree Days 0 0  
Month to date cooling degree days 0 0  
Year to date cooling degree days 3 0  
Since 1 June cooling degree days 3 0  
Moisture  
Dew Point 47 °F    
Average Humidity 0    
Maximum Humidity 0    
Minimum Humidity 0    
Precipitation  
Precipitation 0.06 in 0.17 in 1.87 in (1922)
Month to date precipitation 1.03 1.13  
Year to date precipitation 30.58 38.43  
Snow  
Snow 0.00 in 0.00 in - ()
Month to date snowfall 0.0 0.0  
Since 1 June snowfall 0.0 0.0  
Since 1 July snowfall 0.0 0.0  
Snow Depth 0.00 in    
Sea Level Pressure  
Sea Level Pressure 29.65 in    
Wind  
Wind Speed 1 mph (ENE)    
Max Wind Speed 9 mph    
Max Gust Speed 15 mph    
Visibility 8 miles    
Events Rain    
T = Trace of Precipitation, MM = Missing Value Source: NWS Daily Summary

Daily Weather History Graph

Daily Weather History Graph

Search for Another Location

Airport or City:

Trip Planner

Search our weather history database for the weather conditions in past years. The results will help you decide how hot, cold, wet, or windy it might be!

Date:

Astronomy

Jul. 07, 2013 Rise Set
Actual Time 5:21 AM AKDT 11:07 PM AKDT
Civil Twilight 4:13 AM AKDT 12:15 AM AKDT
Nautical Twilight 2:47 AM AKDT 1:42 AM AKDT
Astronomical Twilight Sun does not rise Sun does not rise
Moon 5:25 AM AKDT (7/7) 10:14 PM AKDT (7/7)
Length of Visible Light 20h 01m
Length of Day
17h 46m
Waning Crescent, 0% of the Moon is Illuminated
Jul 7
Waning Crescent
Jul 7
New
Jul 15
First Quarter
Jul 22
Full
Jul 29
Last Quarter

Hourly Weather History & Observations

Time (AKDT) Temp. Dew Point Humidity Pressure Visibility Wind Dir Wind Speed Gust Speed Precip Events Conditions
12:53 AM 48.9 °F 46.0 °F 90% 29.68 in 10.0 mi Calm Calm - N/A   Overcast
1:00 AM 48.2 °F 46.4 °F 93% 29.68 in 10.0 mi Calm Calm - N/A   Overcast
1:18 AM 48.2 °F 44.6 °F 87% 29.67 in 10.0 mi Calm Calm - N/A   Overcast
1:38 AM 48.2 °F 46.4 °F 93% 29.66 in 10.0 mi Calm Calm - N/A   Overcast
1:53 AM 48.0 °F 46.0 °F 93% 29.66 in 10.0 mi Calm Calm - N/A   Overcast
2:53 AM 48.0 °F 46.0 °F 93% 29.66 in 10.0 mi Calm Calm - N/A   Overcast
3:53 AM 48.0 °F 45.0 °F 89% 29.65 in 10.0 mi Calm Calm - N/A   Overcast
4:53 AM 48.0 °F 45.0 °F 89% 29.63 in 10.0 mi Calm Calm - N/A   Mostly Cloudy
5:20 AM 48.2 °F 44.6 °F 87% 29.63 in 10.0 mi Calm Calm - N/A   Mostly Cloudy
5:53 AM 48.0 °F 45.0 °F 89% 29.62 in 10.0 mi Calm Calm - N/A   Mostly Cloudy
6:53 AM 48.0 °F 45.0 °F 89% 29.62 in 10.0 mi Calm Calm - N/A   Mostly Cloudy
7:53 AM 48.0 °F 46.0 °F 93% 29.62 in 10.0 mi Calm Calm - N/A   Overcast
8:53 AM 50.0 °F 46.0 °F 86% 29.61 in 10.0 mi Calm Calm - 0.00 in   Overcast
9:53 AM 52.0 °F 46.0 °F 80% 29.61 in 10.0 mi Calm Calm - N/A   Overcast
10:53 AM 52.0 °F 46.9 °F 83% 29.61 in 10.0 mi ENE 5.8 mph - N/A   Overcast
11:53 AM 51.1 °F 48.0 °F 89% 29.62 in 4.0 mi ENE 5.8 mph - N/A   Overcast
12:05 PM 50.0 °F 48.2 °F 94% 29.62 in 2.0 mi ENE 6.9 mph - 0.01 in Rain Light Rain
12:20 PM 51.8 °F 48.2 °F 88% 29.62 in 1.5 mi NE 8.1 mph - 0.01 in Rain Light Rain
12:27 PM 50.0 °F 48.2 °F 94% 29.62 in 1.8 mi NE 9.2 mph - 0.02 in Rain Light Rain
12:32 PM 50.0 °F 48.2 °F 94% 29.62 in 2.0 mi NE 8.1 mph - 0.02 in Rain Light Rain
12:53 PM 50.0 °F 48.0 °F 93% 29.63 in 4.0 mi ENE 6.9 mph - 0.02 in Rain Light Rain
12:56 PM 51.8 °F 48.2 °F 88% 29.63 in 2.5 mi ENE 6.9 mph - 0.00 in Rain Light Rain
1:27 PM 50.0 °F 48.2 °F 94% 29.63 in 3.0 mi ENE 5.8 mph - 0.02 in Rain Light Rain
1:53 PM 50.0 °F 48.0 °F 93% 29.64 in 6.0 mi East 4.6 mph - 0.02 in   Overcast
2:53 PM 50.0 °F 46.9 °F 89% 29.65 in 3.0 mi Calm Calm - 0.02 in Rain Light Rain
3:00 PM 50.0 °F 48.2 °F 94% 29.65 in 4.0 mi Calm Calm - 0.00 in Rain Light Rain
3:16 PM 51.8 °F 48.2 °F 88% 29.65 in 10.0 mi Calm Calm - 0.00 in   Overcast
3:19 PM 51.8 °F 48.2 °F 88% 29.65 in 9.0 mi Calm Calm - 0.00 in   Overcast
3:53 PM 52.0 °F 48.0 °F 86% 29.65 in 7.0 mi Calm Calm - 0.01 in   Overcast
4:22 PM 51.8 °F 46.4 °F 82% 29.65 in 5.0 mi Calm Calm - 0.00 in   Haze
4:53 PM 52.0 °F 46.0 °F 80% 29.65 in 7.0 mi ESE 3.5 mph - 0.00 in   Overcast
5:00 PM 51.8 °F 48.2 °F 88% 29.65 in 10.0 mi NE 5.8 mph - N/A   Overcast
5:51 PM 51.8 °F 48.2 °F 88% 29.66 in 10.0 mi NE 4.6 mph - 0.00 in   Overcast
5:53 PM 51.1 °F 48.0 °F 89% 29.66 in 10.0 mi ENE 3.5 mph - 0.00 in   Overcast
6:53 PM 51.1 °F 46.9 °F 86% 29.68 in 10.0 mi Calm Calm - N/A   Overcast
7:53 PM 50.0 °F 46.9 °F 89% 29.68 in 10.0 mi Calm Calm - 0.00 in   Overcast
8:53 PM 50.0 °F 46.9 °F 89% 29.69 in 10.0 mi Calm Calm - N/A   Overcast
9:53 PM 50.0 °F 48.0 °F 93% 29.70 in 10.0 mi Calm Calm - N/A   Overcast
10:53 PM 50.0 °F 48.0 °F 93% 29.71 in 10.0 mi Calm Calm - N/A   Overcast
11:53 PM 50.0 °F 46.9 °F 89% 29.71 in 10.0 mi Calm Calm - N/A   Overcast